DAL920 KSLC-KSFO

Flight info

Callsign DAL920
Flight time 1h 2m
Altitude 40000
Route DEZRT2 BAM LLC LEGGS BDEGA4
Aircraft A359/H-SDE2E3GHIJ3J4J5LM1ORWXY/LB1D1

Departure

Time 2026-05-05 03:36
Airport Salt Lake City International Airport (KSLC)

Arrival

Time 2026-05-05 04:38
Airport San Francisco International Airport (KSFO)
Time Latitude Longitude Altitude Speed Heading
2026-05-05 03:12 40.78403 -111.97884 4235 ft 0 kts 173°
2026-05-05 03:24 40.78413 -111.97886 4235 ft 2 kts 184°
2026-05-05 03:24 40.78429 -111.97882 4234 ft 2 kts 204°
2026-05-05 03:25 40.78443 -111.97870 4233 ft 2 kts 231°
2026-05-05 03:25 40.78451 -111.97851 4232 ft 2 kts 250°
2026-05-05 03:25 40.78455 -111.97830 4234 ft 2 kts 261°
2026-05-05 03:25 40.78457 -111.97809 4234 ft 2 kts 262°
2026-05-05 03:26 40.78459 -111.97787 4233 ft 2 kts 268°
2026-05-05 03:26 40.78458 -111.97766 4233 ft 2 kts 291°
2026-05-05 03:26 40.78449 -111.97749 4229 ft 2 kts 326°
2026-05-05 03:26 40.78434 -111.97740 4231 ft 2 kts 355°
2026-05-05 03:27 40.78421 -111.97739 4231 ft 1 kts 358°
2026-05-05 03:27 40.78418 -111.97739 4231 ft 0 kts 358°
2026-05-05 03:27 40.78423 -111.97739 4231 ft 6 kts 358°
2026-05-05 03:28 40.78536 -111.97753 4236 ft 20 kts 353°
2026-05-05 03:28 40.78676 -111.97770 4239 ft 23 kts 355°
2026-05-05 03:28 40.78838 -111.97789 4240 ft 24 kts 355°
2026-05-05 03:28 40.79006 -111.97809 4240 ft 25 kts 355°
2026-05-05 03:29 40.79186 -111.97828 4237 ft 27 kts 355°
2026-05-05 03:29 40.79382 -111.97851 4233 ft 29 kts 355°
2026-05-05 03:29 40.79588 -111.97874 4234 ft 30 kts 355°
2026-05-05 03:29 40.79669 -111.97854 4232 ft 11 kts 45°
2026-05-05 03:30 40.79711 -111.97797 4234 ft 2 kts
2026-05-05 03:30 40.79786 -111.97800 4235 ft 20 kts 356°
2026-05-05 03:30 40.79976 -111.97827 4240 ft 30 kts 352°
2026-05-05 03:30 40.80179 -111.97847 4242 ft 29 kts 356°
2026-05-05 03:31 40.80379 -111.97868 4243 ft 29 kts 354°
2026-05-05 03:31 40.80568 -111.97880 4239 ft 19 kts 359°
2026-05-05 03:31 40.80600 -111.97868 4239 ft 0 kts 31°
2026-05-05 03:31 40.80622 -111.97841 4237 ft 10 kts 50°
2026-05-05 03:32 40.80639 -111.97767 4237 ft 9 kts 92°
2026-05-05 03:32 40.80621 -111.97709 4237 ft 4 kts 137°
2026-05-05 03:32 40.80569 -111.97667 4240 ft 7 kts 174°
2026-05-05 03:32 40.80529 -111.97664 4241 ft 5 kts 176°
2026-05-05 03:33 40.80494 -111.97661 4242 ft 5 kts 176°
2026-05-05 03:33 40.80476 -111.97660 4242 ft 0 kts 175°
2026-05-05 03:34 40.80444 -111.97656 4243 ft 16 kts 174°
2026-05-05 03:35 40.80110 -111.97618 4241 ft 80 kts 175°
2026-05-05 03:35 40.79349 -111.97530 4234 ft 137 kts 175°
2026-05-05 03:35 40.78293 -111.97402 4346 ft 165 kts 180°
2026-05-05 03:35 40.77113 -111.97390 4762 ft 176 kts 179°
2026-05-05 03:36 40.75928 -111.97818 5519 ft 183 kts 207°
2026-05-05 03:36 40.74932 -111.99016 6377 ft 208 kts 233°
2026-05-05 03:36 40.74408 -112.00906 6900 ft 233 kts 263°
2026-05-05 03:36 40.74543 -112.03082 7391 ft 241 kts 278°
2026-05-05 03:37 40.74887 -112.05245 8205 ft 239 kts 280°
2026-05-05 03:37 40.75306 -112.07357 8913 ft 246 kts 287°
2026-05-05 03:37 40.75953 -112.09563 9332 ft 271 kts 289°
2026-05-05 03:37 40.76707 -112.11930 9942 ft 284 kts 290°
2026-05-05 03:38 40.77510 -112.14376 10561 ft 299 kts 291°
2026-05-05 03:38 40.78373 -112.16988 10953 ft 321 kts 291°
2026-05-05 03:38 40.79298 -112.19778 11347 ft 340 kts 291°
2026-05-05 03:38 40.80266 -112.22693 11912 ft 352 kts 292°
2026-05-05 03:39 40.81247 -112.25655 12622 ft 359 kts 292°
2026-05-05 03:39 40.82179 -112.28467 13369 ft 362 kts 294°
2026-05-05 03:39 40.83194 -112.31524 14120 ft 366 kts 294°
2026-05-05 03:39 40.84223 -112.34631 14645 ft 370 kts 294°
2026-05-05 03:40 40.85255 -112.37753 14973 ft 372 kts 294°
2026-05-05 03:40 40.86284 -112.40914 15306 ft 375 kts 292°
2026-05-05 03:40 40.86959 -112.44256 15633 ft 378 kts 277°
2026-05-05 03:40 40.86956 -112.47746 16006 ft 382 kts 266°
2026-05-05 03:41 40.86728 -112.51266 16359 ft 387 kts 265°
2026-05-05 03:41 40.86475 -112.54813 16718 ft 390 kts 265°
2026-05-05 03:41 40.86223 -112.58401 17084 ft 393 kts 265°
2026-05-05 03:41 40.85947 -112.62004 17457 ft 396 kts 264°
2026-05-05 03:42 40.85629 -112.65582 17826 ft 398 kts 262°
2026-05-05 03:42 40.85288 -112.69216 18171 ft 400 kts 262°
2026-05-05 03:42 40.84797 -112.74722 18669 ft 404 kts 263°
2026-05-05 03:42 40.84078 -112.89674 20023 ft 413 kts 269°
2026-05-05 03:43 40.84135 -113.05007 21448 ft 422 kts 269°
2026-05-05 03:43 40.84163 -113.20690 22934 ft 432 kts 269°
2026-05-05 03:43 40.84169 -113.31294 23850 ft 439 kts 269°
2026-05-05 03:43 40.84160 -113.47596 25187 ft 448 kts 269°
2026-05-05 03:44 40.84127 -113.64245 26584 ft 459 kts 269°
2026-05-05 03:44 40.84068 -113.81354 28077 ft 471 kts 269°
2026-05-05 03:44 40.83971 -113.98900 29647 ft 484 kts 268°
2026-05-05 03:44 40.83837 -114.16895 31048 ft 496 kts 269°
2026-05-05 03:45 40.83678 -114.35006 32483 ft 499 kts 268°
2026-05-05 03:45 40.83485 -114.53400 33968 ft 500 kts 268°
2026-05-05 03:45 40.83266 -114.71547 35291 ft 488 kts 267°
2026-05-05 03:45 40.81629 -114.89186 36678 ft 477 kts 259°
2026-05-05 03:46 40.77677 -115.23616 36781 ft 476 kts 259°
2026-05-05 03:46 40.73589 -115.58330 36785 ft 483 kts 259°
2026-05-05 03:47 40.69317 -115.93639 36800 ft 489 kts 259°
2026-05-05 03:47 40.64882 -116.29353 36804 ft 496 kts 259°
2026-05-05 03:48 40.60279 -116.65469 36868 ft 501 kts 259°
2026-05-05 03:48 40.55489 -117.01727 36881 ft 505 kts 259°
2026-05-05 03:49 40.46806 -117.36654 36834 ft 507 kts 248°
2026-05-05 03:49 40.36813 -117.71390 36843 ft 509 kts 248°
2026-05-05 03:50 40.26815 -118.06062 36854 ft 507 kts 248°
2026-05-05 03:50 40.16695 -118.40697 36866 ft 510 kts 248°
2026-05-05 03:51 40.09510 -118.65015 36864 ft 512 kts 248°
2026-05-05 03:51 40.06397 -118.75482 36872 ft 512 kts 248°
2026-05-05 03:52 40.01993 -118.90221 36849 ft 512 kts 248°
2026-05-05 03:52 39.99396 -118.98875 36841 ft 513 kts 247°
2026-05-05 03:53 39.96780 -119.07562 36825 ft 515 kts 247°
2026-05-05 03:53 39.94151 -119.16264 36826 ft 515 kts 247°
2026-05-05 03:54 39.91514 -119.24968 36844 ft 516 kts 247°
2026-05-05 03:54 39.88883 -119.33621 36841 ft 516 kts 247°
2026-05-05 03:55 39.86231 -119.42313 36848 ft 516 kts 247°
2026-05-05 03:55 39.83576 -119.50991 36873 ft 516 kts 247°
2026-05-05 03:56 39.80907 -119.59682 36907 ft 517 kts 247°
2026-05-05 03:56 39.78250 -119.68311 36930 ft 517 kts 247°
2026-05-05 03:57 39.75565 -119.77003 36954 ft 518 kts 247°
2026-05-05 03:57 39.72873 -119.85687 36962 ft 518 kts 247°
2026-05-05 03:58 39.70173 -119.94372 36957 ft 519 kts 247°
2026-05-05 03:58 39.67479 -120.03008 36925 ft 519 kts 246°
2026-05-05 03:59 39.64760 -120.11697 36946 ft 519 kts 247°
2026-05-05 03:59 39.62032 -120.20388 36974 ft 520 kts 247°
2026-05-05 04:00 39.59293 -120.29087 36993 ft 521 kts 247°
2026-05-05 04:00 39.56546 -120.37785 36988 ft 521 kts 247°
2026-05-05 04:01 39.53799 -120.46453 37007 ft 523 kts 246°
2026-05-05 04:01 39.51019 -120.55199 37018 ft 524 kts 246°
2026-05-05 04:02 39.48234 -120.63931 37036 ft 525 kts 246°
2026-05-05 04:02 39.45456 -120.72617 37031 ft 525 kts 246°
2026-05-05 04:03 39.42655 -120.81345 37050 ft 525 kts 246°
2026-05-05 04:03 39.39844 -120.90076 37046 ft 527 kts 246°
2026-05-05 04:04 39.37027 -120.98801 37031 ft 525 kts 246°
2026-05-05 04:04 39.34175 -121.07483 37035 ft 523 kts 243°
2026-05-05 04:05 39.30232 -121.15327 37022 ft 521 kts 231°
2026-05-05 04:05 39.25876 -121.22786 37034 ft 523 kts 231°
2026-05-05 04:06 39.21502 -121.30280 37024 ft 521 kts 231°
2026-05-05 04:06 39.17154 -121.37733 37028 ft 519 kts 231°
2026-05-05 04:07 39.12811 -121.45165 37025 ft 519 kts 231°
2026-05-05 04:07 39.08444 -121.52620 37050 ft 522 kts 231°
2026-05-05 04:08 39.04058 -121.60089 37043 ft 523 kts 232°
2026-05-05 04:08 38.99668 -121.67550 37033 ft 523 kts 232°
2026-05-05 04:09 38.95287 -121.74978 36800 ft 523 kts 232°
2026-05-05 04:09 38.93085 -121.78706 36444 ft 522 kts 231°
2026-05-05 04:09 38.90890 -121.82417 36087 ft 522 kts 231°
2026-05-05 04:10 38.88694 -121.86125 35712 ft 523 kts 231°
2026-05-05 04:10 38.86492 -121.89841 35268 ft 522 kts 231°
2026-05-05 04:10 38.84293 -121.93545 34805 ft 522 kts 231°
2026-05-05 04:10 38.82093 -121.97248 34306 ft 521 kts 231°
2026-05-05 04:11 38.79910 -122.00918 33758 ft 519 kts 231°
2026-05-05 04:11 38.77718 -122.04600 33159 ft 516 kts 231°
2026-05-05 04:11 38.75550 -122.08237 32573 ft 510 kts 231°
2026-05-05 04:11 38.73401 -122.11840 32003 ft 508 kts 230°
2026-05-05 04:12 38.71258 -122.15426 31446 ft 505 kts 230°
2026-05-05 04:12 38.69131 -122.18981 30902 ft 501 kts 230°
2026-05-05 04:12 38.67020 -122.22505 30374 ft 498 kts 230°
2026-05-05 04:12 38.64945 -122.25966 29804 ft 494 kts 229°
2026-05-05 04:13 38.62860 -122.29440 29201 ft 490 kts 230°
2026-05-05 04:13 38.60799 -122.32870 28595 ft 483 kts 230°
2026-05-05 04:13 38.58759 -122.36262 27998 ft 479 kts 230°
2026-05-05 04:13 38.56731 -122.39628 27418 ft 476 kts 230°
2026-05-05 04:14 38.54690 -122.42940 26857 ft 473 kts 227°
2026-05-05 04:14 38.52344 -122.45835 26298 ft 462 kts 217°
2026-05-05 04:14 38.49898 -122.48395 25749 ft 455 kts 215°
2026-05-05 04:14 38.47430 -122.50925 25229 ft 453 kts 215°
2026-05-05 04:15 38.44972 -122.53446 24691 ft 450 kts 216°
2026-05-05 04:15 38.42575 -122.55909 24193 ft 446 kts 216°
2026-05-05 04:15 38.40165 -122.58388 23692 ft 443 kts 216°
2026-05-05 04:15 38.37777 -122.60844 23109 ft 439 kts 216°
2026-05-05 04:16 38.35407 -122.63283 22535 ft 436 kts 216°
2026-05-05 04:16 38.33044 -122.65711 21955 ft 434 kts 216°
2026-05-05 04:16 38.30697 -122.68121 21392 ft 431 kts 216°
2026-05-05 04:16 38.28368 -122.70512 20834 ft 427 kts 216°
2026-05-05 04:17 38.26055 -122.72881 20290 ft 424 kts 216°
2026-05-05 04:17 38.23660 -122.74913 19765 ft 415 kts 201°
2026-05-05 04:17 38.20940 -122.75828 19242 ft 397 kts 176°
2026-05-05 04:17 38.18266 -122.75496 18721 ft 382 kts 160°
2026-05-05 04:18 38.15675 -122.74736 18176 ft 381 kts 159°
2026-05-05 04:18 38.13098 -122.73947 17732 ft 380 kts 159°
2026-05-05 04:18 38.10531 -122.73176 17347 ft 377 kts 160°
2026-05-05 04:18 38.07979 -122.72422 16950 ft 374 kts 160°
2026-05-05 04:19 38.05476 -122.71685 16574 ft 375 kts 160°
2026-05-05 04:19 38.02944 -122.70947 16194 ft 371 kts 161°
2026-05-05 04:19 38.00437 -122.70219 15814 ft 368 kts 161°
2026-05-05 04:19 37.97945 -122.69493 15442 ft 366 kts 161°
2026-05-05 04:20 37.95467 -122.68775 15054 ft 364 kts 161°
2026-05-05 04:20 37.93001 -122.68062 14688 ft 362 kts 161°
2026-05-05 04:20 37.90589 -122.67220 14346 ft 356 kts 153°
2026-05-05 04:20 37.88500 -122.65664 13979 ft 344 kts 135°
2026-05-05 04:21 37.86671 -122.63752 13602 ft 343 kts 133°
2026-05-05 04:21 37.84854 -122.61791 13196 ft 343 kts 134°
2026-05-05 04:21 37.83063 -122.59865 12816 ft 341 kts 134°
2026-05-05 04:21 37.81244 -122.57928 12438 ft 340 kts 135°
2026-05-05 04:22 37.79434 -122.56007 12061 ft 338 kts 135°
2026-05-05 04:22 37.77632 -122.54096 11686 ft 337 kts 135°
2026-05-05 04:22 37.75832 -122.52190 11311 ft 336 kts 136°
2026-05-05 04:22 37.74062 -122.50318 11045 ft 334 kts 136°
2026-05-05 04:23 37.72291 -122.48449 10981 ft 323 kts 136°
2026-05-05 04:23 37.70623 -122.46683 10984 ft 303 kts 135°
2026-05-05 04:23 37.69058 -122.45026 10979 ft 284 kts 135°
2026-05-05 04:23 37.67596 -122.43437 11008 ft 275 kts 134°
2026-05-05 04:24 37.66133 -122.41876 10982 ft 274 kts 135°
2026-05-05 04:24 37.64660 -122.40339 11002 ft 274 kts 135°
2026-05-05 04:24 37.63209 -122.38809 10989 ft 274 kts 136°
2026-05-05 04:25 37.59952 -122.36176 10551 ft 284 kts 150°
2026-05-05 04:25 37.58169 -122.35144 10278 ft 279 kts 153°
2026-05-05 04:25 37.56390 -122.34218 9957 ft 275 kts 155°
2026-05-05 04:25 37.54631 -122.33341 9574 ft 274 kts 158°
2026-05-05 04:26 37.52856 -122.32502 9227 ft 271 kts 158°
2026-05-05 04:26 37.51097 -122.31676 8856 ft 268 kts 158°
2026-05-05 04:26 37.49359 -122.30835 8492 ft 266 kts 158°
2026-05-05 04:26 37.47652 -122.29980 8169 ft 262 kts 157°
2026-05-05 04:27 37.45972 -122.29115 7853 ft 258 kts 156°
2026-05-05 04:27 37.44349 -122.28268 7564 ft 254 kts 156°
2026-05-05 04:27 37.42733 -122.27417 7249 ft 250 kts 157°
2026-05-05 04:27 37.41139 -122.26575 7030 ft 246 kts 156°
2026-05-05 04:28 37.39562 -122.25733 6977 ft 247 kts 157°
2026-05-05 04:28 37.37969 -122.24888 6890 ft 250 kts 157°
2026-05-05 04:28 37.36348 -122.24034 6519 ft 251 kts 158°
2026-05-05 04:28 37.34765 -122.23219 6358 ft 243 kts 159°
2026-05-05 04:29 37.33214 -122.22363 6044 ft 243 kts 150°
2026-05-05 04:29 37.31884 -122.21040 5983 ft 246 kts 133°
2026-05-05 04:29 37.30981 -122.19247 5978 ft 247 kts 115°
2026-05-05 04:29 37.30644 -122.17121 5985 ft 252 kts 93°
2026-05-05 04:30 37.31010 -122.14956 5868 ft 259 kts 70°
2026-05-05 04:30 37.32086 -122.13119 5437 ft 264 kts 41°
2026-05-05 04:30 37.33680 -122.12080 5218 ft 256 kts 17°
2026-05-05 04:30 37.35412 -122.11788 5042 ft 247 kts
2026-05-05 04:31 37.36544 -122.11731 4916 ft 243 kts
2026-05-05 04:31 37.38217 -122.11957 4734 ft 242 kts 348°
2026-05-05 04:31 37.39839 -122.12498 4557 ft 239 kts 345°
2026-05-05 04:31 37.41437 -122.13069 4372 ft 238 kts 345°
2026-05-05 04:32 37.43025 -122.13632 4197 ft 236 kts 345°
2026-05-05 04:32 37.44598 -122.14181 4015 ft 234 kts 344°
2026-05-05 04:32 37.46161 -122.14729 3839 ft 232 kts 343°
2026-05-05 04:32 37.47719 -122.15270 3653 ft 230 kts 343°
2026-05-05 04:33 37.49250 -122.15791 3479 ft 224 kts 343°
2026-05-05 04:33 37.50711 -122.16295 3289 ft 217 kts 343°
2026-05-05 04:33 37.52146 -122.16854 3108 ft 215 kts 337°
2026-05-05 04:33 37.53407 -122.17822 2921 ft 212 kts 318°
2026-05-05 04:34 37.54311 -122.19249 2744 ft 205 kts 301°
2026-05-05 04:34 37.54996 -122.20820 2394 ft 205 kts 298°
2026-05-05 04:34 37.55589 -122.22456 2004 ft 206 kts 294°
2026-05-05 04:34 37.56240 -122.24032 1786 ft 194 kts 300°
2026-05-05 04:35 37.56839 -122.25424 1775 ft 167 kts 299°
2026-05-05 04:35 37.57358 -122.26681 1623 ft 159 kts 298°
2026-05-05 04:35 37.57855 -122.27895 1455 ft 157 kts 299°
2026-05-05 04:35 37.58353 -122.29090 1222 ft 153 kts 299°
2026-05-05 04:36 37.58851 -122.30290 1016 ft 157 kts 296°
2026-05-05 04:36 37.59360 -122.31518 797 ft 158 kts 297°
2026-05-05 04:36 37.59869 -122.32726 650 ft 152 kts 297°
2026-05-05 04:36 37.60372 -122.33947 476 ft 163 kts 298°
2026-05-05 04:37 37.60882 -122.35150 222 ft 150 kts 298°
2026-05-05 04:37 37.61341 -122.36246 41 ft 135 kts 298°
2026-05-05 04:37 37.61751 -122.37199 31 ft 109 kts 296°
2026-05-05 04:37 37.62020 -122.37852 29 ft 58 kts 298°
2026-05-05 04:38 37.62107 -122.38059 29 ft 15 kts 298°
2026-05-05 04:38 37.62159 -122.38184 29 ft 25 kts 298°
2026-05-05 04:38 37.62218 -122.38427 26 ft 0 kts 266°
2026-05-05 04:38 37.62216 -122.38460 26 ft 11 kts 267°
2026-05-05 04:39 37.62242 -122.38678 24 ft 29 kts 300°
2026-05-05 04:39 37.62254 -122.38863 23 ft 13 kts 267°
2026-05-05 04:39 37.62254 -122.38979 24 ft 14 kts 257°
2026-05-05 04:39 37.62221 -122.39097 24 ft 13 kts 232°
2026-05-05 04:40 37.62141 -122.39166 24 ft 15 kts 210°
2026-05-05 04:40 37.62039 -122.39232 23 ft 17 kts 201°
2026-05-05 04:40 37.61965 -122.39221 27 ft 6 kts 121°
2026-05-05 04:40 37.61936 -122.39152 26 ft 11 kts 117°
2026-05-05 04:41 37.61911 -122.39090 25 ft 3 kts 117°
2026-05-05 04:41 37.61872 -122.39079 24 ft 7 kts 200°
2026-05-05 04:41 37.61837 -122.39104 27 ft 0 kts 208°
2026-05-05 04:41 37.61830 -122.39108 28 ft 0 kts 208°